Location: Ç?ral? Körfezi
(36.3984°N, 30.4829°E)
Time: 17:58:56
(UTC+00:00)

Cosmos 2263 Rocket - Pass Details

Date: 04 August 2024
Orbit: 821 x 849 km, 71.0° (Epoch: 18 September)

Event Time Altitude Azimuth Distance (km) Brightness Sun altitude
Rises 21:06:38 0° 353° (N) 3,392 6.3 -35.0°
Reaches altitude 10° 21:09:48 10° 10° (N) 2,460 5.3 -35.2°
Enters shadow 21:13:10 19° 47° (NE) 1,894 4.2 -35.3°
